TimeCST,TemperatureF,Dew PointF,Humidity,Sea Level PressureIn,VisibilityMPH,Wind Direction,Wind SpeedMPH,Gust SpeedMPH,PrecipitationIn,Events,Conditions,WindDirDegrees,DateUTC
12:15 AM,36.9,33.8,89,30.07,5.0,West,9.2,-,N/A,,Overcast,270,2013-01-09 06:15:00
12:35 AM,37.9,34.5,87,30.11,7.0,West,8.1,-,N/A,,Overcast,260,2013-01-09 06:35:00
12:55 AM,37.8,34.7,89,30.10,4.0,WSW,8.1,-,N/A,,Overcast,250,2013-01-09 06:55:00
1:15 AM,37.4,34.9,91,30.11,3.0,WSW,9.2,-,N/A,,Overcast,250,2013-01-09 07:15:00
1:35 AM,37.4,35.6,93,30.12,2.5,West,6.9,-,N/A,,Overcast,270,2013-01-09 07:35:00
1:55 AM,37.6,35.8,93,30.10,2.0,WNW,9.2,-,N/A,,Overcast,290,2013-01-09 07:55:00
2:15 AM,38.3,36.7,94,30.10,2.0,WNW,10.4,-,N/A,,Overcast,300,2013-01-09 08:15:00
2:35 AM,39.0,37.4,94,30.11,1.8,WNW,9.2,-,N/A,,Overcast,300,2013-01-09 08:35:00
2:55 AM,39.2,37.8,95,30.10,1.8,WNW,11.5,-,N/A,,Overcast,300,2013-01-09 08:55:00
3:15 AM,39.2,38.1,96,30.11,1.8,WNW,11.5,-,N/A,,Overcast,300,2013-01-09 09:15:00
3:35 AM,39.6,38.3,95,30.11,2.5,NW,11.5,-,N/A,,Overcast,310,2013-01-09 09:35:00
3:55 AM,39.7,38.5,95,30.11,3.0,NW,13.8,-,N/A,,Overcast,320,2013-01-09 09:55:00
4:15 AM,39.6,38.3,95,30.10,3.0,NW,13.8,-,N/A,,Light Drizzle,320,2013-01-09 10:15:00
4:35 AM,39.6,38.3,95,30.12,2.5,NW,15.0,-,N/A,,Overcast,320,2013-01-09 10:35:00
4:55 AM,40.1,38.5,94,30.11,2.0,NW,17.3,-,N/A,,Drizzle,320,2013-01-09 10:55:00
5:15 AM,39.6,38.3,95,30.12,2.5,NW,17.3,24.2,N/A,Rain,Rain,320,2013-01-09 11:15:00
5:35 AM,39.2,37.4,93,30.12,5.0,NW,20.7,25.3,N/A,Rain,Light Rain,310,2013-01-09 11:35:00
5:55 AM,39.2,37.0,92,30.11,4.0,NW,20.7,26.5,N/A,Rain,Rain,310,2013-01-09 11:55:00
6:15 AM,39.2,36.9,91,30.11,5.0,NW,19.6,-,N/A,Rain,Light Rain,320,2013-01-09 12:15:00
6:35 AM,38.5,36.1,91,30.12,4.0,NW,18.4,-,N/A,,Overcast,320,2013-01-09 12:35:00
7:15 AM,38.3,35.8,91,30.15,4.0,NW,17.3,-,N/A,Rain,Light Rain,320,2013-01-09 13:15:00
8:15 AM,39.0,37.0,93,30.19,4.0,NW,15.0,-,N/A,,Overcast,320,2013-01-09 14:15:00
8:35 AM,39.2,37.4,93,30.20,2.0,NW,13.8,-,N/A,,Drizzle,320,2013-01-09 14:35:00
8:55 AM,39.4,37.6,93,30.21,1.5,NW,15.0,-,N/A,,Light Drizzle,320,2013-01-09 14:55:00
9:15 AM,39.2,37.6,94,30.21,3.0,NW,15.0,-,N/A,,Light Drizzle,320,2013-01-09 15:15:00
9:35 AM,38.3,36.5,93,30.22,5.0,NW,18.4,-,N/A,,Overcast,320,2013-01-09 15:35:00
9:55 AM,38.5,36.9,94,30.22,5.0,NW,15.0,-,N/A,,Overcast,320,2013-01-09 15:55:00
10:15 AM,38.5,36.9,94,30.23,5.0,NW,13.8,-,N/A,,Drizzle,320,2013-01-09 16:15:00
10:55 AM,38.7,37.0,94,30.22,4.0,NW,16.1,-,N/A,,Drizzle,320,2013-01-09 16:55:00
11:15 AM,38.5,36.9,94,30.19,1.8,NW,17.3,-,N/A,Rain,Rain,320,2013-01-09 17:15:00
12:15 PM,38.8,37.2,94,30.16,2.5,NW,19.6,25.3,N/A,Rain,Rain,310,2013-01-09 18:15:00
12:55 PM,39.2,37.6,94,30.14,1.8,NW,20.7,-,N/A,Rain,Rain,320,2013-01-09 18:55:00
1:35 PM,40.1,38.3,93,30.11,2.0,NNW,20.7,-,N/A,Rain,Light Rain,330,2013-01-09 19:35:00
1:55 PM,39.9,38.3,94,30.10,3.0,NNW,18.4,-,N/A,Rain,Rain,330,2013-01-09 19:55:00
2:55 PM,40.1,37.9,92,30.07,5.0,NW,24.2,27.6,N/A,Rain,Light Rain,320,2013-01-09 20:55:00
3:15 PM,40.1,37.8,91,30.07,5.0,NW,23.0,28.8,N/A,Rain,Rain,320,2013-01-09 21:15:00
3:35 PM,39.7,37.4,91,30.07,4.0,NW,23.0,31.1,N/A,Rain,Rain,310,2013-01-09 21:35:00
3:55 PM,40.1,37.4,90,30.07,4.0,NW,21.9,25.3,N/A,Rain,Rain,310,2013-01-09 21:55:00
4:15 PM,40.1,36.9,88,30.07,5.0,NW,21.9,26.5,N/A,Rain,Rain,310,2013-01-09 22:15:00
4:35 PM,40.3,36.9,88,30.07,4.0,NW,18.4,-,N/A,Rain,Rain,310,2013-01-09 22:35:00
4:55 PM,40.5,37.4,89,30.07,4.0,NW,19.6,-,N/A,Rain,Rain,310,2013-01-09 22:55:00
5:55 PM,41.0,38.3,90,30.07,5.0,NW,12.7,-,N/A,Rain,Rain,310,2013-01-09 23:55:00
6:15 PM,41.0,38.7,91,30.09,4.0,NNW,4.6,-,N/A,Rain,Heavy Rain,340,2013-01-10 00:15:00
6:35 PM,41.0,38.7,91,30.10,2.5,NNW,3.5,-,N/A,,Overcast,340,2013-01-10 00:35:00
7:15 PM,40.3,38.7,94,30.11,2.0,Calm,Calm,-,0.01,Rain,Heavy Rain,0,2013-01-10 01:15:00
7:35 PM,40.1,38.3,93,30.10,4.0,NW,8.1,-,0.01,Rain,Heavy Rain,310,2013-01-10 01:35:00
7:55 PM,39.4,37.4,93,30.10,7.0,NW,9.2,-,0.01,Rain,Rain,310,2013-01-10 01:55:00
8:15 PM,39.2,36.9,91,30.09,10.0,NW,9.2,-,N/A,Rain,Light Rain,310,2013-01-10 02:15:00
8:35 PM,39.2,36.9,91,30.09,10.0,West,8.1,-,N/A,Rain,Rain,280,2013-01-10 02:35:00
8:55 PM,39.2,36.9,91,30.08,10.0,West,9.2,-,N/A,Rain,Light Rain,280,2013-01-10 02:55:00
9:55 PM,40.1,38.3,93,30.09,7.0,WNW,15.0,18.4,N/A,,Drizzle,290,2013-01-10 03:55:00
10:15 PM,40.5,38.5,93,30.09,7.0,WNW,16.1,-,N/A,,Light Drizzle,290,2013-01-10 04:15:00
10:35 PM,40.6,38.7,93,30.09,5.0,WNW,16.1,20.7,N/A,,Overcast,290,2013-01-10 04:35:00
11:15 PM,41.0,39.2,93,30.08,10.0,WNW,17.3,-,N/A,,Overcast,300,2013-01-10 05:15:00
11:35 PM,41.0,39.2,93,30.08,7.0,WNW,15.0,-,N/A,,Overcast,290,2013-01-10 05:35:00
11:55 PM,41.0,38.8,92,30.09,10.0,WNW,17.3,24.2,0.01,,Overcast,300,2013-01-10 05:55:00